OBJECT H, 59780

Orbit data source: Space-Track

You're viewing an Uncataloged Satellite

Recently launched and/or uncataloged satellites may have evolving metadata. Metadata may include but not limited to: Owner, Maufacturer, Bus, Motor, and Mission.

OBJECT H, 59780 is a satellite owned by Byuro 1440 (CIS) in SSO that was launched on Thu, 16 May 2024 UTC via a SOYUZ-2-1B launch vehicle from the Plesetsk Missile And Space Complex (PKMTR). Unknown objects in Earth's orbit typically refer to objects detected orbiting the Earth but have not yet been identified or cataloged. These objects could be anything from previously untracked satellites, spent rocket stages, debris from satellite collisions, or even natural meteoroids temporarily captured by Earth's gravity.

Loading next visibility...
Identifier
59780, 2024-092H
Orbit
SSO
Country
Flag of CISCIS
Related business
Manufacturer
Byuro 1440
Mission
Operational Commercial Communications
Bus & Motor
RASSVET-2, Unknown motor
Mass
120 kg wet, 120 kg dry
Launch date (UTC)
2024-05-16 (2 years ago)
Launch vehicle
SOYUZ-2-1B
Launch site
Plesetsk Missile And Space Complex (PKMTR)
Object type
Unknown
Shape & HBR
Box + 2 Pan, 2.5 m
Radar Cross Section
1.622 m², Large (>1 m²)

Expand to show TLE details & history
Last TLE update: 8 hours ago

TLE from 8 hours ago
0 OBJECT H
1 59780U 24092H   26125.45815411  .00000200  00000-0  91401-4 0  9992
2 59780  98.6640 244.5493 0011698 340.5860  19.4876 14.31829702102786
Epoch: 2026-05-05T10:59Z
TLE epoch observation values (Epoch: 2026-05-05T10:59:44.515Z)
Latitude
-0.00001°
Longitude
-143.71889°
Altitude
780.653 km
Speed
7.468 km/s
True Right ascension
16h 18m 11s
True Declination
0° 00' 00"
Sunlit
Object was in full shadow at epoch
Visualization orbit readout
Latitude
Unknown
Longitude
Unknown
Altitude
Unknown
Speed
Unknown
Apparent Right ascension
Unknown
Apparent Declination
Unknown
Sunlit
N/A
Visualization observer readout
Local Sidereal Time
02:41:51
Azimuth
Unknown
Elevation
Unknown
Doppler factor
Unknown
Orbital elements
Apogee altitude
791.139 km
Perigee altitude
774.385 km
Semi-major axis
7,160.899 km
Eccentricity
0.00117
Inclination
98.664°
RAAN
244.5493°
Arg. of periapsis
340.586°
True anomaly
19.53238°
Mean anomaly
19.4876°
Eccentric anomaly
19.50998°
Mean motion
3.58172 °/min
Orbital period
100.51 mins
BSTAR
0.000091401
Loading maneuver chart data...
Computing Atmospheric mass density...
Loading historical data...
Loading historical data...
Loading historical data...
Loading historical data...
Loading historical data...
Loading historical data...
Loading historical data...

Documentation

Showing up to 5 results
|